Overview Statistics Trail Chart Weather Telemetry Raw packets
 

This is the latest recevied weather packets stored in our database for station/object WW5JC. If no packets are shown the sender has not sent any weather packets the latest 10 day(s).

<< 86 87 88 89 90 91 92 >>
Time Temp. Humidity Pressure Rain* Wind** Luminosity Snow
1787994206 23.89° C 81% 1019.3 hPa 0 mm - 0 W/m² -
1787993904 23.89° C 81% 1019.2 hPa 0 mm - 0 W/m² -
1787993599 23.89° C 81% 1019.2 hPa 0 mm - 0 W/m² -
1787993294 23.33° C 81% 1019.6 hPa 0 mm - 0 W/m² -
1787992989 23.33° C 82% 1019.4 hPa 0 mm - 0 W/m² -
1787992684 23.89° C 81% 1019.6 hPa 0 mm - 0 W/m² -
1787992378 24.44° C 79% 1019.6 hPa 0 mm - 0 W/m² -
1787992077 24.44° C 79% 1019.7 hPa 0 mm - 0 W/m² -
1787991776 24.44° C 78% 1019.6 hPa 0 mm - 0 W/m² -
1787991472 23.89° C 79% 1019.5 hPa 0 mm - 0 W/m² -
1787991168 24.44° C 79% 1019 hPa 0 mm - 0 W/m² -
1787990863 24.44° C 77% 1019.2 hPa 0 mm - 0 W/m² -
1787990558 25° C 76% 1019.1 hPa 0 mm - 0 W/m² -
1787990256 25° C 76% 1019.2 hPa 0 mm - 0 W/m² -
1787989952 25° C 76% 1019.1 hPa 0 mm - 0 W/m² -
1787989651 25° C 75% 1019.2 hPa 0 mm - 0 W/m² -
1787989346 25° C 75% 1019.1 hPa 0 mm - 0 W/m² -
1787989045 25° C 74% 1019.2 hPa 0 mm - 0 W/m² -
1787988739 25° C 74% 1019.2 hPa 0 mm - 0 W/m² -
1787988436 25.56° C 73% 1019.1 hPa 0 mm - 0 W/m² -
1787988135 25.56° C 72% 1019.1 hPa 0 mm - 0 W/m² -
1787987831 25.56° C 72% 1019.3 hPa 0 mm - 0 W/m² -
1787987526 25.56° C 71% 1019.1 hPa 0 mm - 0 W/m² -
1787987220 26.11° C 70% 1019.1 hPa 0 mm - 0 W/m² -
1787986916 26.11° C 70% 1019.1 hPa 0 mm - 0 W/m² -

* Rain latest hour (hover to see other rain measurements)
** Current wind speed in m/s (hover to see current wind gust speed)